Location: Delmar
(42.6220°N, 73.8326°W)
Time: 08:59:36
(UTC+00:00)

Cosmos 1408 - Pass Details

Date: 29 October 2020
Orbit: 470 x 492 km, 82.6° (Epoch: 23 November)

Event Time Altitude Azimuth Distance (km) Brightness Sun altitude
Rises 22:56:48 0° 359° (N) 2,557 6.2 -12.6°
Reaches altitude 10° 22:59:00 10° 8° (N) 1,676 5.1 -13.0°
Maximum altitude 23:02:27 39° 78° (ENE) 748 3.0 -13.6°
Drops below altitude 10° 23:05:55 10° 148° (SSE) 1,673 5.0 -14.2°
Sets 23:08:06 0° 157° (SSE) 2,553 6.0 -14.6°
